Location: Chamerau
(49.1969°N, 12.7525°E)
Time: 05:08:30
(UTC+00:00)

USA 238 DEB - Pass Details

Date: 18 September 2020
Orbit: 1004 x 1208 km, 63.4° (Epoch: 28 October)

Event Time Altitude Azimuth Distance (km) Brightness Sun altitude
Rises 17:41:21 0° 314° (NW) 3,900 7.6 -5.1°
Reaches altitude 10° 17:44:08 10° 321° (NW) 2,972 6.8 -5.6°
Maximum altitude 17:50:54 45° 33° (NNE) 1,521 4.4 -6.7°
Drops below altitude 10° 17:57:58 10° 105° (ESE) 3,096 5.4 -7.8°
Enters shadow 17:58:13 - 106° (ESE) 3,179 5.5 -7.9°
